Location: Newark
(51.8042°N, 2.6377°W)
Time: 11:25:23
(UTC+00:00)

ISS - Visible Passes

Search period start: 15 December 2019 00:00
Search period end: 25 December 2019 00:00
Orbit: 411 x 421 km, 51.6° (Epoch: 15 December)

Date Brightness Start Highest point End Pass type
(mag) Time Alt. Az. Time Alt. Az. Time Alt. Az.
21 Dec -0.5 06:55:49 10° SSE 06:57:22 13° SE 06:58:55 10° ESE visible
23 Dec -1.4 06:53:48 10° SSW 06:56:34 25° SSE 06:59:21 10° E visible
24 Dec -1.0 06:05:52 10° S 06:08:09 17° SE 06:10:28 10° E visible
